Probability
19 48 39 23 13 10 6 0 0 0 0 0 0 0 0 6 0 6 32 0 0 0 0 0 0 0 0 3 6 10 16 13 10 13 13 13 6 13
13 26 52 35 23 19 16 10 6 0 0 0 0 0 0 0 0 10 6 0 0 0 0 0 0 0 0 0 0 0 0 0 0 0 0 0 0 0
3 3 10 32 39 32 26 13 13 6 3 3 0 0 3 0 0 0 3 10 3 0 0 0 0 0 0 0 0 0 0 0 0 0 0 0 0 0
0 0 0 0 16 29 42 39 29 39 26 16 10 0 3 6 3 0 0 0 0 0 0 0 0 0 0 0 0 0 0 0 0 0 0 0 0 0
0 0 0 0 6 6 29 39 39 19 29 23 16 16 6 6 0 0 0 0 0 0 0 0 0 0 0 0 0 0 0 0 0 0 0 0 0 0
0 0 0 0 0 0 0 23 32 35 42 23 19 13 6 6 0 0 0 0 0 0 0 0 0 0 0 0 0 0 0 0 0 0 0 0 0 0
0 0 0 0 0 0 0 0 16 26 23 23 16 13 10 6 0 0 0 0 0 0 0 0 0 0 0 0 0 0 0 0 0 0 0 0 0 0
0 0 0 0 0 0 0 0 0 6 10 6 19 16 19 10 6 0 0 0 0 0 0 0 0 0 0 0 0 0 0 0 0 0 0 0 0 0
0 0 0 0 0 0 0 0 0 0 0 3 10 13 19 13 10 0 0 0 0 0 0 0 0 0 0 0 0 0 0 0 0 0 0 0 0 0
0 0 0 0 0 0 0 0 0 0 0 0 3 10 0 26 29 10 0 0 0 0 0 0 0 0 0 0 0 0 0 0 0 0 0 0 0 0
0 0 0 0 0 0 0 0 0 0 0 0 0 0 0 0 0 6 0 0 0 0 0 0 0 0 0 0 0 0 0 0 0 0 0 0 0 0
0 0 0 0 0 0 0 0 0 0 0 0 0 0 0 0 0 0 0 0 0 0 0 0 0 0 0 0 0 0 0 0 0 0 0 0 0 0
0 0 0 0 0 0 0 0 0 0 0 0 0 0 0 0 0 0 0 0 0 0 0 0 0 0 0 0 0 0 0 0 0 0 0 0 0 0
0 0 0 0 0 0 0 0 0 0 0 0 0 0 0 0 0 0 0 0 0 0 0 0 0 0 0 0 0 0 0 0 0 0 0 0 0 0
0 0 0 0 0 0 0 0 0 0 0 0 0 0 0 0 0 0 0 0 0 0 0 0 0 0 0 0 0 0 0 0 0 0 0 0 0 0
0 0 0 0 0 0 0 0 0 0 0 0 0 0 0 0 0 0 0 0 0 0 0 0 0 0 0 0 0 0 0 0 0 0 0 0 0 0
0 0 0 0 0 0 0 0 0 0 0 0 0 0 0 0 0 0 0 0 0 0 0 0 0 0 0 0 0 0 0 0 0 0 0 0 0 0
0 0 0 0 0 0 0 0 0 0 0 0 0 0 0 0 0 0 0 0 0 0 0 0 0 0 0 0 0 0 0 0 0 0 0 0 0 0
0 0 0 3 0 0 0 0 0 0 0 0 0 0 0 0 0 0 0 0 0 0 0 0 0 0 0 0 0 0 0 0 0 0 0 0 0 0
0 0 0 3 0 0 0 0 0 0 0 0 0 0 0 0 0 0 0 0 0 0 0 0 0 0 0 0 0 0 0 0 0 0 0 0 0 0
0 0 0 0 0 0 0 0 0 0 0 0 0 0 0 0 0 0 0 0 0 0 0 0 0 0 0 0 0 0 0 0 0 0 0 0 0 0
0 0 0 0 0 0 0 0 0 0 0 0 0 0 0 0 0 0 0 0 0 0 0 0 0 0 0 0 0 0 0 0 0 0 0 0 0 0
0 0 0 0 0 0 0 0 0 0 0 0 0 0 0 0 0 0 0 0 0 0 0 0 0 0 0 0 0 0 0 0 0 0 0 0 0 0
Height
5740 5744 5748 5753 5758 5763 5768 5774 5778 5783 5787 5791 5795 5798 5802 5805 5808 5810 5811 5813 5814 5814 5815 5815 5815 5816 5817 5819 5821 5823 5825 5827 5829 5831 5834 5836 5838 5841
5727 5731 5736 5741 5746 5752 5757 5763 5768 5773 5778 5783 5787 5791 5795 5798 5801 5803 5805 5807 5808 5809 5809 5809 5810 5810 5811 5813 5814 5816 5818 5819 5821 5823 5825 5827 5830 5832
5712 5717 5723 5728 5734 5740 5745 5751 5757 5763 5768 5773 5778 5783 5787 5791 5794 5797 5799 5801 5802 5803 5803 5804 5804 5804 5805 5806 5808 5809 5810 5812 5814 5815 5817 5819 5821 5824
5694 5701 5708 5714 5720 5726 5733 5739 5746 5752 5758 5763 5769 5774 5779 5783 5787 5790 5792 5794 5795 5796 5797 5797 5798 5798 5799 5800 5801 5802 5804 5805 5807 5808 5810 5812 5814 5816
5676 5683 5691 5697 5705 5712 5719 5726 5734 5740 5747 5753 5759 5765 5770 5775 5779 5782 5785 5787 5789 5790 5791 5791 5792 5792 5793 5794 5795 5796 5798 5799 5800 5801 5802 5804 5807 5809
5656 5664 5672 5680 5688 5696 5704 5712 5720 5728 5735 5742 5749 5755 5761 5766 5770 5774 5777 5780 5782 5784 5785 5785 5786 5786 5787 5788 5789 5790 5791 5793 5794 5796 5797 5798 5800 5803
5635 5644 5653 5662 5670 5679 5688 5697 5706 5714 5722 5730 5738 5745 5751 5757 5762 5766 5770 5773 5775 5777 5779 5779 5780 5780 5781 5782 5783 5784 5786 5787 5789 5791 5792 5794 5795 5798
5614 5624 5633 5643 5652 5662 5672 5681 5690 5699 5709 5718 5726 5734 5741 5748 5753 5758 5762 5766 5769 5771 5772 5773 5774 5775 5776 5776 5778 5779 5781 5782 5784 5786 5788 5789 5791 5793
5595 5604 5613 5623 5634 5644 5655 5665 5675 5684 5694 5705 5714 5722 5730 5738 5744 5749 5753 5758 5761 5764 5766 5767 5768 5769 5770 5771 5772 5774 5776 5778 5780 5781 5783 5785 5787 5789
5578 5586 5595 5605 5616 5627 5638 5650 5660 5670 5681 5691 5702 5711 5718 5726 5733 5739 5745 5749 5754 5757 5759 5761 5762 5763 5764 5766 5767 5769 5771 5773 5775 5777 5779 5781 5783 5785
5564 5572 5580 5590 5600 5612 5624 5636 5647 5656 5667 5678 5688 5697 5707 5715 5723 5730 5736 5741 5746 5750 5752 5754 5756 5757 5758 5760 5762 5764 5766 5768 5770 5773 5775 5776 5779 5781
5553 5561 5569 5577 5586 5596 5608 5620 5632 5643 5654 5665 5676 5685 5695 5704 5713 5721 5728 5733 5738 5742 5745 5748 5750 5752 5753 5755 5756 5759 5761 5763 5765 5767 5769 5772 5774 5776
5542 5550 5558 5566 5575 5585 5595 5607 5618 5630 5641 5652 5664 5674 5684 5694 5704 5712 5719 5725 5730 5735 5738 5741 5743 5746 5748 5749 5751 5753 5755 5758 5760 5762 5764 5766 5768 5771
5535 5543 5550 5558 5566 5575 5585 5595 5606 5617 5629 5641 5653 5663 5674 5685 5694 5703 5710 5717 5722 5727 5731 5735 5737 5740 5742 5744 5746 5748 5750 5752 5754 5756 5758 5761 5763 5765
5530 5538 5545 5552 5559 5568 5576 5585 5595 5607 5618 5630 5642 5653 5664 5674 5684 5693 5701 5708 5714 5719 5724 5728 5731 5734 5736 5738 5740 5742 5744 5746 5749 5751 5753 5755 5757 5759
5527 5533 5540 5547 5554 5561 5569 5577 5587 5597 5609 5620 5632 5643 5653 5664 5674 5685 5693 5701 5707 5712 5717 5721 5725 5728 5730 5732 5734 5736 5738 5741 5743 5745 5747 5749 5751 5754
5524 5530 5536 5543 5549 5556 5564 5571 5580 5589 5599 5610 5622 5633 5645 5656 5666 5676 5685 5693 5700 5706 5711 5715 5718 5721 5724 5726 5728 5730 5733 5735 5737 5739 5742 5744 5746 5749
5521 5527 5533 5539 5545 5552 5558 5565 5573 5582 5592 5602 5614 5625 5637 5649 5659 5669 5677 5686 5693 5699 5704 5708 5712 5715 5718 5721 5723 5725 5728 5730 5732 5734 5737 5739 5742 5745
5519 5524 5530 5536 5541 5547 5553 5560 5567 5576 5585 5596 5607 5619 5630 5642 5652 5662 5670 5679 5686 5692 5697 5702 5706 5709 5713 5715 5718 5721 5723 5725 5728 5730 5732 5735 5738 5741
5517 5522 5527 5532 5537 5542 5548 5554 5562 5569 5579 5589 5601 5612 5624 5635 5646 5655 5665 5673 5680 5686 5691 5696 5700 5704 5707 5710 5713 5716 5718 5721 5723 5726 5728 5731 5734 5737
5516 5520 5524 5528 5533 5538 5543 5549 5556 5564 5574 5584 5596 5607 5619 5629 5640 5650 5659 5666 5673 5679 5685 5689 5694 5698 5701 5705 5708 5711 5713 5716 5719 5722 5724 5727 5729 5731
5515 5518 5521 5525 5529 5533 5538 5544 5551 5560 5569 5580 5592 5604 5615 5625 5635 5645 5653 5661 5668 5673 5679 5684 5688 5692 5696 5700 5703 5705 5708 5711 5714 5716 5719 5722 5724 5725
5513 5516 5518 5522 5525 5529 5534 5540 5548 5557 5567 5579 5590 5601 5612 5622 5631 5640 5648 5656 5662 5668 5674 5679 5683 5687 5691 5694 5697 5701 5703 5706 5709 5711 5714 5715 5717 5719
Wind_Speed
49 47 46 46 45 44 43 41 40 38 36 34 32 30 27 24 22 20 19 18 19 19 19 21 23 24 26 28 30 31 32 32 33 35 36 37 38 40
54 52 50 49 48 48 46 45 43 41 39 37 35 33 30 27 24 22 21 20 20 20 20 21 23 25 26 28 29 30 31 32 33 33 34 34 36 37
61 58 55 54 52 51 50 48 46 45 43 41 38 35 32 29 26 24 23 22 22 21 21 22 23 25 26 27 28 29 30 32 33 33 34 35 35 35
66 64 61 58 57 55 53 51 49 48 46 44 41 38 35 32 29 26 24 23 23 22 22 23 23 24 26 27 28 28 29 30 31 32 32 34 34 34
70 69 67 64 60 59 57 54 52 51 49 47 44 40 37 34 31 29 26 25 24 23 23 23 23 24 25 27 27 28 28 28 28 29 29 30 30 30
72 72 71 70 67 62 60 58 55 53 51 49 46 43 40 37 34 31 28 26 25 24 23 23 23 24 25 26 27 27 26 26 25 24 24 24 25 26
74 74 75 74 73 69 64 61 60 57 54 51 49 46 42 39 36 33 30 28 26 25 24 23 24 24 25 25 25 25 24 24 24 23 22 22 23 23
74 75 76 76 75 74 70 65 62 60 56 53 50 48 45 42 38 35 32 29 27 25 25 24 24 24 24 24 24 23 23 23 23 22 21 20 20 20
69 73 76 77 76 75 75 71 67 63 61 58 55 50 47 44 41 38 34 31 28 27 25 24 24 24 24 24 23 22 21 21 20 20 19 19 19 18
61 65 70 74 74 75 75 75 72 68 62 58 56 53 50 47 44 40 36 32 30 27 26 25 24 24 24 24 24 23 22 21 20 20 19 19 19 19
52 55 60 66 70 72 73 73 72 70 67 61 56 54 53 50 46 42 37 34 30 28 26 25 24 23 23 24 24 23 22 22 21 20 20 20 20 20
45 46 51 56 60 64 68 70 70 69 67 64 59 56 56 53 48 43 40 36 32 29 27 26 25 24 23 23 23 23 23 22 22 22 22 22 21 20
40 41 42 46 51 56 60 64 66 67 66 64 62 58 57 55 50 44 40 37 33 30 28 27 25 24 23 22 22 23 23 23 23 23 23 23 22 22
36 36 37 37 41 47 52 56 59 63 64 64 62 59 57 54 51 46 41 37 34 31 29 28 27 26 24 23 23 24 24 24 24 24 24 24 24 23
33 33 33 33 35 39 43 48 52 57 58 59 59 56 55 52 50 46 43 39 35 32 30 28 28 27 25 25 24 24 25 25 25 25 25 24 24 24
28 29 30 31 32 34 37 41 45 50 52 53 55 55 52 50 50 47 43 40 36 33 31 30 29 28 26 25 25 24 24 24 25 25 25 25 24 23
25 26 28 29 30 31 32 35 40 44 49 50 51 52 51 48 46 46 43 41 38 35 33 31 29 28 26 25 24 24 24 24 23 23 23 23 22 21
23 25 26 27 28 30 31 32 36 41 45 47 48 49 48 47 46 45 44 42 39 36 34 32 31 28 27 25 24 23 23 23 22 21 22 22 22 22
22 24 25 26 27 28 30 32 34 39 44 48 48 47 48 47 45 44 43 41 39 37 35 33 32 29 27 26 24 23 23 22 22 22 22 22 22 23
20 22 24 26 27 28 31 32 34 38 43 48 48 49 49 48 45 43 42 40 38 37 36 34 32 31 29 27 25 24 23 23 23 22 22 23 23 24
19 20 22 25 27 29 31 33 35 38 43 48 48 49 48 48 46 43 41 40 38 37 36 35 33 31 29 27 25 24 24 23 23 23 24 24 25 26
17 19 21 23 25 27 30 33 35 39 43 47 48 47 46 45 44 43 41 39 38 36 35 34 33 30 29 28 27 26 25 24 24 24 25 25 26 27
16 16 17 20 22 25 29 34 38 41 44 47 46 45 44 44 42 41 40 38 36 35 34 32 31 30 29 28 28 27 26 25 25 25 26 27 28 29
Wind_Direction
241 238 235 234 233 233 233 233 232 231 230 230 231 233 237 242 247 253 260 265 269 275 277 275 270 264 259 255 251 248 247 246 246 247 248 248 247 246
241 238 235 234 233 232 232 232 232 232 232 230 231 233 235 240 245 252 259 264 268 273 277 278 273 266 261 256 253 250 248 247 247 247 247 247 247 246
240 239 237 234 233 233 232 232 232 232 234 232 231 232 235 238 243 250 257 262 266 271 276 278 274 267 261 257 253 251 249 248 249 249 249 248 246 246
238 238 237 235 233 232 232 231 231 232 233 234 233 232 234 236 241 246 254 261 265 269 275 277 275 268 261 256 253 252 251 250 250 250 249 248 246 244
237 236 236 235 234 233 232 231 231 231 232 233 234 233 233 235 239 244 252 258 262 266 273 276 273 267 261 255 252 252 252 250 249 249 248 246 244 244
237 236 235 234 234 233 232 231 230 230 231 232 233 233 233 234 237 242 248 254 258 263 270 273 271 266 260 254 251 250 249 249 246 247 246 242 242 242
236 236 235 234 233 233 232 230 230 229 229 230 231 232 232 232 235 238 244 250 254 260 266 269 268 264 257 252 249 248 246 246 244 248 246 244 244 244
236 235 235 235 233 233 232 230 229 228 228 228 229 229 230 230 232 235 239 245 250 256 261 264 266 262 256 251 248 247 245 243 242 244 244 243 244 243
236 236 235 234 233 233 233 232 230 229 229 227 226 226 227 227 229 231 234 239 245 252 257 261 261 259 254 250 248 244 242 241 241 242 244 245 246 247
235 235 234 234 233 233 233 232 232 230 228 228 225 224 225 225 225 227 231 235 241 247 253 257 257 255 252 249 246 242 242 243 243 244 246 248 250 251
232 232 232 232 233 232 232 232 232 232 231 230 224 223 224 224 223 224 227 231 235 242 247 251 252 251 251 247 243 242 242 243 244 246 246 247 249 251
226 227 229 229 230 231 231 231 231 231 231 230 229 226 223 222 221 222 224 227 231 236 242 245 246 248 247 245 242 241 241 242 244 247 246 247 250 250
219 220 222 225 226 227 228 229 230 230 230 231 229 228 225 222 221 221 221 224 228 233 237 241 242 245 245 244 242 240 241 243 245 246 245 247 249 248
214 215 216 218 221 222 223 225 226 228 229 230 229 227 226 223 221 221 219 221 225 229 233 236 239 242 243 242 243 242 243 244 245 245 244 245 247 245
208 211 212 213 214 215 217 219 221 223 225 226 226 225 222 222 219 219 218 218 222 226 229 234 236 239 241 241 243 244 243 244 244 243 241 242 242 239
204 207 209 210 209 210 213 215 217 219 220 221 221 220 219 218 218 216 217 217 219 223 228 232 233 235 240 241 242 241 240 241 241 240 240 240 238 234
206 209 210 209 208 209 211 213 214 214 214 214 216 216 215 214 213 212 213 215 218 222 227 229 231 234 237 240 242 238 237 236 237 236 234 233 231 226
206 206 207 207 209 210 211 211 211 211 209 207 209 210 209 209 211 211 211 214 218 221 225 228 231 232 235 237 236 234 234 231 231 230 230 227 224 221
203 204 206 208 210 211 211 210 209 207 205 203 204 202 202 203 205 207 208 212 215 219 223 226 228 230 234 234 231 231 231 231 231 229 227 224 222 223
202 206 210 213 215 214 211 209 208 204 202 199 198 198 199 200 201 204 207 210 214 218 222 224 226 229 230 229 230 231 231 230 230 228 227 225 225 228
205 209 213 215 215 214 211 209 204 200 199 195 193 194 196 198 200 203 206 209 212 216 220 222 224 227 228 230 231 233 232 230 229 229 229 230 232 236
206 210 214 213 211 210 209 204 198 194 191 188 187 190 194 196 198 201 204 208 212 215 219 222 224 226 227 229 231 232 232 231 231 231 234 237 240 243
205 208 210 209 210 211 206 198 190 186 183 182 182 187 190 193 194 198 202 207 211 214 218 220 222 225 227 230 231 231 232 233 234 237 240 242 246 250